Date_and_time,latitude,longitude,wind_speed,RelWindDirFrom,WindDirFrom,air_pressure,air_temperature,relative_humidity,Temp,platform_speed_wrt_ground,air_pressure_at_mean_sea_level,platform_orientation
2019-04-01 23:40,50.6304433333333,-96.98076,8.9,12.6,248,981.34,5.5,46,2.16,0.0,1008.45,167.4
2019-04-01 23:50,50.6304416666667,-96.98076,9.7,14.8,246,981.29,5.2,48,2.17,0.0,1008.42,167.4
2019-04-02 00:00,50.6304416666667,-96.9807583333333,7.7,11.1,246,981.32,4.8,50,2.17,0.0,1008.49,90.0
2019-04-02 00:10,50.6304383333333,-96.98076,6.0,8.5,270,981.40,4.7,52,2.18,0.0,1008.57,90.0
2019-04-02 00:20,50.6304316666667,-96.980745,8.5,13.4,268,981.38,4.6,52,2.20,0.0,1008.53,90.0
2019-04-02 00:30,50.6304366666667,-96.9807583333333,8.9,13.4,270,981.35,4.3,58,2.20,0.0,1008.53,90.0
2019-04-02 00:40,50.6304433333333,-96.98076,6.2,9.7,260,981.21,4.2,61,2.17,0.0,1008.41,90.0
2019-04-02 00:50,50.6304433333333,-96.9807633333333,4.8,7.2,253,981.05,3.9,63,2.16,0.0,1008.25,90.0
2019-04-02 01:00,50.6304433333333,-96.9807633333333,4.0,5.9,240,980.98,3.4,65,2.19,0.0,1008.20,270.0
2019-04-02 01:10,50.6304433333333,-96.980765,4.0,5.5,242,980.96,3.1,67,2.20,0.0,1008.20,270.0
2019-04-02 01:20,50.630445,-96.9807683333333,4.3,6.2,239,980.96,2.8,68,2.22,0.0,1008.21,270.0
2019-04-02 01:30,50.630445,-96.980775,3.9,5.7,235,980.95,2.6,68,2.23,0.0,1008.21,270.0
2019-04-02 01:40,50.6304416666667,-96.9807683333333,3.7,5.9,239,980.96,2.5,68,2.23,0.0,1008.24,270.0
2019-04-02 01:50,50.630445,-96.980765,3.4,5.2,238,980.95,2.5,68,2.22,0.0,1008.25,270.0
2019-04-02 02:00,50.6304433333333,-96.980765,3.1,4.3,232,980.87,2.3,69,2.21,0.0,1008.18,270.0
2019-04-02 02:10,50.63044,-96.9807683333333,3.6,5.3,222,980.77,2.2,70,2.20,0.0,1008.09,270.0
2019-04-02 02:20,50.6304516666667,-96.9807816666667,3.7,4.7,217,980.80,2.0,71,2.19,0.0,1008.14,270.0
2019-04-02 02:30,50.6304483333333,-96.9807766666667,4.6,6.0,218,980.84,1.7,73,2.18,0.0,1008.20,270.0
2019-04-02 02:40,50.630445,-96.9807716666667,5.1,6.2,218,980.78,1.6,74,2.18,0.0,1008.17,270.0
2019-04-02 02:50,50.6304533333333,-96.9807783333333,4.8,6.4,214,980.69,1.6,75,2.18,0.0,1008.09,270.0
2019-04-02 03:00,50.6304533333333,-96.98077,4.9,6.0,212,980.57,1.6,74,2.21,0.0,1007.98,345.5
2019-04-02 03:10,50.6304416666667,-96.9807866666667,5.5,7.3,211,980.46,1.6,74,2.24,0.0,1007.88,345.5
2019-04-02 03:20,50.6304383333333,-96.9807783333333,4.6,5.4,210,980.31,1.8,73,2.25,0.0,1007.74,345.5
2019-04-02 03:30,50.6304416666667,-96.9807766666667,4.4,5.7,233,980.31,1.8,74,2.23,0.0,1007.74,345.5
2019-04-02 03:40,50.6304433333333,-96.980775,4.0,7.7,220,980.05,1.9,73,2.20,0.0,1007.47,345.5
2019-04-02 03:50,50.6304633333333,-96.9808,2.9,4.1,228,979.85,1.7,74,2.19,0.0,1007.29,345.5
2019-04-02 04:00,50.630425,-96.98079,3.1,4.3,214,979.61,1.5,74,2.18,0.0,1007.06,233.0
2019-04-02 04:10,50.630435,-96.9807783333333,4.6,5.8,205,979.43,1.3,74,2.18,0.0,1006.89,233.0
2019-04-02 04:20,50.63044,-96.9807733333333,6.0,7.9,208,979.33,1.3,73,2.18,0.0,1006.80,233.0
2019-04-02 04:30,50.6304383333333,-96.9807716666667,6.2,8.5,210,979.34,1.2,73,2.18,0.0,1006.82,233.0
2019-04-02 04:40,50.63044,-96.980775,7.2,9.4,206,979.15,1.1,73,2.19,0.0,1006.63,233.0
2019-04-02 04:50,50.63044,-96.9807766666667,6.9,8.9,206,978.99,1.1,73,2.20,0.0,1006.47,233.0
2019-04-02 05:00,50.6304233333333,-96.9807766666667,7.4,9.9,204,978.79,1.1,73,2.22,0.0,1006.26,219.5
2019-04-02 05:10,50.6304116666667,-96.9807883333333,6.8,10.1,212,978.61,1.1,74,2.21,0.0,1006.07,219.5
2019-04-02 05:20,50.630435,-96.9807816666667,4.3,6.0,233,978.57,1.0,75,2.20,0.0,1006.02,219.5
2019-04-02 05:30,50.6304516666667,-96.9807566666667,2.9,5.3,264,978.41,1.1,75,2.21,0.0,1005.85,219.5
2019-04-02 05:40,50.6304466666667,-96.98076,3.2,5.0,245,978.30,1.0,76,2.22,0.0,1005.76,219.5
2019-04-02 05:50,50.6304533333333,-96.9807683333333,5.1,6.4,218,978.15,0.9,78,2.21,0.0,1005.62,219.5
2019-04-02 06:00,50.6304483333333,-96.9807866666667,5.9,9.1,222,978.22,0.9,78,2.18,0.0,1005.69,253.2
2019-04-02 06:10,50.6304466666667,-96.9807816666667,8.6,12.3,230,978.28,1.0,80,2.14,0.0,1005.76,253.2
2019-04-02 06:20,50.6304466666667,-96.9807766666667,9.8,14.4,239,978.21,0.9,88,2.13,0.0,1005.69,253.2
2019-04-02 06:30,50.6304633333333,-96.9807933333333,7.9,13.1,239,978.13,0.7,96,2.12,0.0,1005.62,253.2
2019-04-02 06:40,50.6304416666667,-96.9807816666667,6.1,9.4,242,977.89,0.3,100,2.11,0.0,1005.41,253.2
2019-04-02 06:50,50.6304783333333,-96.9807683333333,6.2,8.0,235,977.83,0.2,101,2.11,0.0,1005.34,253.2
2019-04-02 07:00,50.6304516666667,-96.9807716666667,7.8,13.5,242,977.90,0.2,102,2.11,0.0,1005.41,27.2
2019-04-02 07:10,50.6304516666667,-96.9807716666667,8.1,12.9,265,977.89,0.4,102,2.13,0.0,1005.40,27.2
2019-04-02 07:20,50.63045,-96.9807733333333,8.4,13.1,267,977.83,0.3,102,2.12,0.0,1005.34,27.2
2019-04-02 07:30,50.6304483333333,-96.9807716666667,9.0,13.8,265,977.79,0.4,103,2.12,0.0,1005.30,27.2
2019-04-02 07:40,50.6304466666667,-96.9807716666667,8.6,13.2,284,977.64,0.5,103,2.13,0.0,1005.15,27.2
2019-04-02 07:50,50.630445,-96.9807716666667,10.0,16.3,295,977.62,0.4,103,2.13,0.0,1005.13,27.2
2019-04-02 08:00,50.630445,-96.9807716666667,11.8,20.9,319,977.73,0.1,103,2.11,0.0,1005.25,38.0
2019-04-02 08:10,50.6304433333333,-96.9807716666667,9.4,15.3,317,977.71,-0.2,103,2.10,0.0,1005.25,38.0
2019-04-02 08:20,50.6304433333333,-96.9807733333333,8.0,12.6,313,977.81,-0.3,103,2.10,0.0,1005.37,38.0
2019-04-02 08:30,50.6304416666667,-96.9807716666667,6.6,10.5,305,977.91,-0.4,103,2.11,0.0,1005.49,38.0
2019-04-02 08:40,50.6304416666667,-96.9807733333333,6.2,10.0,309,977.87,-0.4,103,2.10,0.0,1005.46,38.0
2019-04-02 08:50,50.6304416666667,-96.9807733333333,6.5,11.4,309,977.75,-0.4,102,2.07,0.0,1005.33,38.0
2019-04-02 09:00,50.6304416666667,-96.9807733333333,6.1,10.4,290,978.00,-0.5,102,2.06,0.0,1005.59,113.6
2019-04-02 09:10,50.63044,-96.9807733333333,6.3,9.8,278,978.10,-0.6,101,2.07,0.0,1005.70,113.6
2019-04-02 09:20,50.6304416666667,-96.9807733333333,5.7,8.5,287,978.01,-0.5,101,2.08,0.0,1005.60,113.6
2019-04-02 09:30,50.6304416666667,-96.9807733333333,5.4,9.3,293,977.90,-0.5,101,2.10,0.0,1005.49,113.6
2019-04-02 09:40,50.6304433333333,-96.9807716666667,5.6,10.0,275,977.97,-0.5,101,2.10,0.0,1005.55,113.6
2019-04-02 09:50,50.6304416666667,-96.9807733333333,6.4,10.6,272,977.99,-0.5,101,2.10,0.0,1005.59,113.6
2019-04-02 10:00,50.6304433333333,-96.9807733333333,5.7,9.7,274,977.93,-0.6,101,2.09,0.0,1005.56,360.0
2019-04-02 10:10,50.6304416666667,-96.9807733333333,5.8,8.3,269,978.06,-0.8,101,2.08,0.0,1005.70,360.0
2019-04-02 10:20,50.6304433333333,-96.9807733333333,7.1,10.7,268,978.26,-1.0,101,2.08,0.0,1005.93,360.0
2019-04-02 10:30,50.6304416666667,-96.9807716666667,6.3,10.4,273,978.39,-1.0,101,2.07,0.0,1006.06,360.0
2019-04-02 10:40,50.6304433333333,-96.9807716666667,5.7,9.0,283,978.36,-1.0,101,2.07,0.0,1006.03,360.0
2019-04-02 10:50,50.6304433333333,-96.980785,6.4,9.4,284,978.28,-1.0,101,2.06,0.0,1005.95,360.0
2019-04-02 11:00,50.63044,-96.9807433333333,4.8,7.4,278,978.28,-1.2,101,2.05,0.0,1005.96,90.0
2019-04-02 11:10,50.6304433333333,-96.9807566666667,4.5,7.0,272,978.28,-1.3,101,2.04,0.0,1005.96,90.0
2019-04-02 11:20,50.6304433333333,-96.9807633333333,3.9,6.1,275,978.28,-1.3,101,2.04,0.0,1005.97,90.0
2019-04-02 11:30,50.630445,-96.9807616666667,4.8,7.9,277,978.37,-1.3,101,2.04,0.0,1006.06,90.0
2019-04-02 11:40,50.6304483333333,-96.9807616666667,5.0,8.3,288,978.50,-1.2,101,2.04,0.0,1006.19,90.0
2019-04-02 11:50,50.6304466666667,-96.98076,6.8,10.4,294,978.65,-1.0,100,2.06,0.0,1006.34,90.0
2019-04-02 12:00,50.630445,-96.9807616666667,5.9,10.4,295,978.75,-1.0,100,2.06,0.0,1006.45,90.0
2019-04-02 12:10,50.6304183333333,-96.98076,8.7,14.1,301,978.85,-1.0,100,2.05,0.0,1006.56,90.0
2019-04-02 12:20,50.6304383333333,-96.9807666666667,9.0,13.9,296,978.99,-1.0,100,2.03,0.0,1006.71,90.0
2019-04-02 12:30,50.63044,-96.980765,9.0,14.4,294,979.17,-1.1,100,2.02,0.0,1006.90,90.0
2019-04-02 12:40,50.6304416666667,-96.980765,9.6,15.1,300,979.29,-1.2,99,2.03,0.0,1007.03,90.0
2019-04-02 12:50,50.6304416666667,-96.980765,8.0,11.7,310,979.34,-1.3,99,2.02,0.0,1007.09,90.0
2019-04-02 13:00,50.6304433333333,-96.9807633333333,8.1,13.6,307,979.45,-1.4,99,2.00,0.0,1007.21,90.0
2019-04-02 13:10,50.6304433333333,-96.9807633333333,8.1,12.9,303,979.56,-1.4,99,2.02,0.0,1007.33,90.0
2019-04-02 13:20,50.6304416666667,-96.9807633333333,9.9,15.1,304,979.66,-1.5,99,2.02,0.0,1007.44,90.0
2019-04-02 13:30,50.6304416666667,-96.980765,9.2,15.8,316,979.78,-1.5,99,2.00,0.0,1007.56,90.0
2019-04-02 13:40,50.6304433333333,-96.980765,8.1,13.1,310,979.87,-1.6,98,1.98,0.0,1007.64,90.0
2019-04-02 13:50,50.6304416666667,-96.980765,8.5,13.6,307,979.95,-1.7,94,1.98,0.0,1007.73,90.0
2019-04-02 14:00,50.6304416666667,-96.9807666666667,8.9,13.3,313,979.95,-1.8,93,1.98,0.0,1007.73,270.0
2019-04-02 14:10,50.6304433333333,-96.9807666666667,7.1,12.9,305,979.98,-1.7,93,1.98,0.0,1007.76,270.0
2019-04-02 14:20,50.6304433333333,-96.9807666666667,10.2,19.6,293,980.04,-1.7,86,1.98,0.0,1007.83,270.0
2019-04-02 14:30,50.6304433333333,-96.9807666666667,10.8,17.8,299,980.15,-2.0,75,1.98,0.0,1007.97,270.0
2019-04-02 14:40,50.6304433333333,-96.9807683333333,8.1,13.1,299,980.28,-2.0,73,1.98,0.0,1008.09,270.0
2019-04-02 14:50,50.6304433333333,-96.9807683333333,10.7,17.7,296,980.19,-1.7,68,1.99,0.0,1008.00,270.0
2019-04-02 15:00,50.6304433333333,-96.98077,9.8,16.1,294,980.19,-1.6,62,1.98,0.0,1007.99,270.0
2019-04-02 15:10,50.6304433333333,-96.98077,11.2,18.2,306,980.22,-1.5,55,1.94,0.0,1008.03,270.0
2019-04-02 15:20,50.6304433333333,-96.98077,12.5,19.0,306,980.33,-1.5,54,1.91,0.0,1008.14,270.0
2019-04-02 15:30,50.6304433333333,-96.98077,11.4,17.7,295,980.42,-1.5,54,1.91,0.0,1008.24,270.0
2019-04-02 15:40,50.6304433333333,-96.98077,11.5,21.7,300,980.50,-1.6,54,1.91,0.0,1008.32,270.0
2019-04-02 15:50,50.6304433333333,-96.98077,11.9,19.9,297,980.54,-1.5,54,1.90,0.0,1008.36,270.0
2019-04-02 16:00,50.6304366666667,-96.9807583333333,12.4,21.5,300,980.58,-1.5,54,1.90,0.0,1008.40,131.7
2019-04-02 16:10,50.630445,-96.9807683333333,12.1,18.2,308,980.70,-1.4,52,1.91,0.0,1008.52,131.7
2019-04-02 16:20,50.6304466666667,-96.9807616666667,11.3,18.5,307,980.75,-1.8,54,1.92,0.0,1008.61,131.7
2019-04-02 16:30,50.6304566666667,-96.980775,12.7,20.2,307,980.73,-1.8,52,1.91,0.0,1008.59,131.7
2019-04-02 16:40,50.6304116666667,-96.9807583333333,11.8,17.3,311,980.82,-1.4,50,1.91,0.0,1008.64,131.7
2019-04-02 16:50,50.6304383333333,-96.98076,13.8,22.8,309,980.79,-1.2,48,1.92,0.0,1008.60,131.7
2019-04-02 17:00,50.6304466666667,-96.9807833333333,13.0,19.8,298,980.87,-1.3,49,1.94,0.0,1008.68,293.6
2019-04-02 17:10,50.6304433333333,-96.98076,11.7,17.8,297,980.97,-1.4,49,1.93,0.0,1008.79,293.6
2019-04-02 17:20,50.6304466666667,-96.9807616666667,10.1,17.4,318,980.93,-1.5,50,1.92,0.0,1008.75,293.6
2019-04-02 17:30,50.630445,-96.9807616666667,9.6,16.1,331,980.94,-1.8,52,1.93,0.0,1008.78,293.6
2019-04-02 17:40,50.6304433333333,-96.9807616666667,9.0,14.5,320,980.90,-1.5,51,1.94,0.0,1008.72,293.6
2019-04-02 17:50,50.630445,-96.98076,11.3,17.1,328,980.82,-1.6,53,1.96,0.0,1008.65,293.6
2019-04-02 18:00,50.630445,-96.98076,9.8,16.0,326,981.04,-2.0,57,1.97,0.0,1008.89,90.0
2019-04-02 18:10,50.6304466666667,-96.98076,7.7,12.2,313,981.09,-1.7,55,1.98,0.0,1008.94,90.0
2019-04-02 18:20,50.6304466666667,-96.9807633333333,12.6,20.1,332,981.08,-2.2,68,2.00,0.0,1008.96,90.0
2019-04-02 18:30,50.6304466666667,-96.9807633333333,8.0,13.6,331,981.29,-2.9,77,2.01,0.0,1009.18,90.0
2019-04-02 18:40,50.6304466666667,-96.980765,5.3,8.8,353,981.20,-2.0,69,2.01,0.0,1009.04,90.0
2019-04-02 18:50,50.6304466666667,-96.980765,6.9,11.9,7,981.14,-1.6,71,1.98,0.0,1008.96,90.0
2019-04-02 19:00,50.6304466666667,-96.980765,11.4,18.9,322,981.19,-3.1,84,1.96,0.0,1009.09,345.5
2019-04-02 19:10,50.6304466666667,-96.980765,9.7,14.7,303,981.43,-3.4,86,1.95,0.0,1009.37,345.5
2019-04-02 19:20,50.6304466666667,-96.980765,7.2,11.6,285,981.45,-2.9,85,1.95,0.0,1009.37,345.5
2019-04-02 19:30,50.6304466666667,-96.980765,7.3,15.0,278,981.37,-1.9,74,1.95,0.0,1009.23,345.5
2019-04-02 19:40,50.6304466666667,-96.980765,12.6,19.0,283,981.45,-3.3,95,1.96,0.0,1009.39,345.5
2019-04-02 19:50,50.6304466666667,-96.980765,11.0,17.1,302,981.47,-2.6,92,1.96,0.0,1009.39,345.5
2019-04-02 20:00,50.6304466666667,-96.9807633333333,12.0,18.3,308,981.54,-2.1,83,1.97,0.0,1009.42,90.0
2019-04-02 20:10,50.630445,-96.9807633333333,13.8,23.7,304,981.80,-3.6,96,1.98,0.0,1009.79,90.0
2019-04-02 20:20,50.630445,-96.980765,8.2,12.3,322,981.81,-4.2,94,1.98,0.0,1009.87,90.0
2019-04-02 20:30,50.630445,-96.980765,9.2,20.2,315,981.87,-3.1,83,1.98,0.0,1009.83,90.0
2019-04-02 20:40,50.630445,-96.980765,11.9,19.7,321,982.00,-3.6,98,1.98,0.0,1009.96,90.0
2019-04-02 20:50,50.6304316666667,-96.9807616666667,13.4,22.0,314,982.13,-3.7,97,1.99,0.0,1010.19,90.0
2019-04-02 21:00,50.630445,-96.9807666666667,11.0,16.5,311,982.17,-3.2,89,2.01,0.0,1010.22,270.0
2019-04-02 21:10,50.630445,-96.9807666666667,12.8,20.5,308,982.25,-2.1,74,2.02,0.0,1010.22,270.0
2019-04-02 21:20,50.630445,-96.9807566666667,13.9,22.6,303,982.38,-2.9,77,2.02,0.0,1010.33,270.0
2019-04-02 21:30,50.630445,-96.9807616666667,10.4,19.3,294,982.56,-3.3,76,2.02,0.0,1010.62,270.0
2019-04-02 21:40,50.6304416666667,-96.980765,13.6,19.4,26,982.59,-3.6,92,2.01,0.0,1010.63,270.0
2019-04-02 21:50,50.63044,-96.9807616666667,12.2,14.7,39,982.62,-5.0,99,2.01,0.0,1010.71,270.0
2019-04-02 22:00,50.6304383333333,-96.9807633333333,9.9,13.8,39,982.78,-5.3,100,2.03,0.0,1010.97,142.0
2019-04-02 22:10,50.630465,-96.9807916666667,6.4,11.1,323,982.94,-4.1,91,2.03,0.0,1011.10,142.0
2019-04-02 22:20,50.6304466666667,-96.9807783333333,8.0,13.9,314,982.84,-2.7,73,2.02,0.0,1010.86,142.0
2019-04-02 22:30,50.630445,-96.9807716666667,6.6,16.9,328,983.08,-3.1,82,2.02,0.0,1011.16,142.0
2019-04-02 22:40,50.630445,-96.98077,9.9,12.7,26,983.07,-3.9,98,2.02,0.0,1011.19,142.0
2019-04-02 22:50,50.630445,-96.9807666666667,9.5,12.0,40,983.13,-4.5,99,2.03,0.0,1011.26,142.0
2019-04-02 23:00,50.630445,-96.9807666666667,8.1,9.9,54,983.22,-5.0,99,2.05,0.0,1011.33,360.0
2019-04-02 23:10,50.630445,-96.98077,5.0,9.1,42,983.32,-4.8,97,2.03,0.0,1011.46,360.0
2019-04-02 23:20,50.6304466666667,-96.9807683333333,7.6,15.3,317,983.18,-3.4,71,2.01,0.0,1011.26,360.0
2019-04-02 23:30,50.6304516666667,-96.98076,9.4,16.6,322,983.30,-2.0,57,2.00,0.0,1011.32,360.0
2019-04-02 23:40,50.6304466666667,-96.9807666666667,10.1,16.3,37,983.61,-3.7,86,2.01,0.0,1011.81,360.0
2019-04-02 23:50,50.63044,-96.9807766666667,9.6,11.3,64,983.73,-5.1,99,2.03,0.0,1012.03,360.0
